Flag for Canada Weather past 2 weeks in Saanich, British Columbia, Canada

Now
72 °F

Passing clouds.


Feels Like: 75 °F
Forecast: 57 / 69 °F
Wind: 9 mph from Southeast

Location: Victoria Int. Airportb. C.

Current Time: Aug 27, 2014 at 2:15:15 PM

Latest Report: Aug 27, 2014 at 1:00 PM


Visibility: 30 mi

Pressure: 30.03 "Hg

Humidity: 65%

Dew point: 59 °F

Location of SaanichLocation

Historic Weather in Saanich — Graph

°F

Saanich temperature yesterday

Maximum temperature yesterday: 79 °F (at 5:00 PM)
Minimum temperature yesterday: 57 °F (at 6:00 AM)
Average temperature yesterday: 67 °F

Past Weeks' High & Low Weather Summary

 TemperatureHumidityPressure
High79 °F (Aug 12, 2:00 PM)100% (Aug 13, 5:00 AM)30.15 "Hg (Aug 13, 5:00 AM)
Low50 °F (Aug 21, 6:00 AM)47% (Aug 24, 3:00 PM)29.76 "Hg (Aug 19, 7:00 PM)
Average63 °F78%29.99 "Hg
* Reported Aug 12 1:00 PM — Aug 27 1:00 PM, Saanich, Weather by CustomWeather, © 2014

Note: Actual official high and low records may vary slightly from our data, if they occured in-between our weather recording intervals... More about our weather records

Advertising

Saanich weather history for previous 24 hours

 ConditionsComfort  
Time TempWeatherWind HumidityBarometerVisibility
1:00 PM
Aug 27
72 °FPassing clouds.9 mph65%30.03 "Hg30 mi
12:00 PM72 °FPassing clouds.7 mph65%30.03 "Hg30 mi
10:00 AM64 °FPassing clouds.8 mph73%30.04 "Hg30 mi
9:00 AM64 °FPassing clouds.3 mph73%30.03 "Hg30 mi
7:00 AM55 °FPassing clouds.No wind94%30.02 "Hg30 mi
6:00 AM55 °FPassing clouds.No wind94%30.01 "Hg30 mi
5:00 AM57 °FClear.3 mph88%30.00 "Hg30 mi
4:00 AM59 °FClear.No wind82%29.99 "Hg30 mi
3:00 AM59 °FClear.2 mph82%29.99 "Hg30 mi
2:00 AM59 °FPassing clouds.No wind82%29.98 "Hg30 mi
1:00 AM61 °FPassing clouds.No wind77%29.98 "Hg30 mi
12:00 AM61 °FPassing clouds.3 mph77%29.97 "Hg30 mi
11:00 PM
Aug 26
63 °FPassing clouds.No wind77%29.97 "Hg30 mi
10:00 PM63 °FPassing clouds.2 mph77%29.98 "Hg30 mi
9:00 PM66 °FPassing clouds.3 mph68%29.97 "Hg30 mi
8:00 PM68 °FPassing clouds.5 mph64%29.96 "Hg30 mi
7:00 PM72 °FPassing clouds.7 mph61%29.96 "Hg30 mi
6:00 PM75 °FPassing clouds.7 mph54%29.98 "Hg30 mi
5:00 PM79 °FPassing clouds.5 mph48%29.98 "Hg30 mi
4:00 PM77 °FPassing clouds.9 mph51%30.00 "Hg30 mi
3:00 PM77 °FPassing clouds.8 mph47%30.01 "Hg30 mi
2:00 PM75 °FPassing clouds.12 mph50%30.03 "Hg30 mi
Weather by CustomWeather, © 2014

See weather overviewHow to use our weather pages